PDT5802 KEVV-KCLT

Flight info

Callsign PDT5802
Flight time 0h 57m
Altitude 35000
Route SKYWA FILPZ4
Aircraft E145/M-SDFGIRW/S

Departure

Time 2026-05-08 21:58
Airport Evansville Regional Airport (KEVV)

Arrival

Time 2026-05-08 22:56
Airport Charlotte Douglas International Airport (KCLT)
Time Latitude Longitude Altitude Speed Heading
2026-05-08 21:27 38.04580 -87.52674 423 ft 0 kts 346°
2026-05-08 21:50 38.04581 -87.52675 423 ft 0 kts 346°
2026-05-08 21:50 38.04570 -87.52671 423 ft 2 kts 346°
2026-05-08 21:50 38.04556 -87.52666 423 ft 2 kts 346°
2026-05-08 21:51 38.04541 -87.52662 423 ft 2 kts 346°
2026-05-08 21:51 38.04526 -87.52660 423 ft 2 kts
2026-05-08 21:51 38.04512 -87.52666 423 ft 2 kts 30°
2026-05-08 21:51 38.04505 -87.52671 423 ft 0 kts 39°
2026-05-08 21:53 38.04512 -87.52664 423 ft 2 kts 39°
2026-05-08 21:54 38.04541 -87.52635 423 ft 8 kts 43°
2026-05-08 21:54 38.04539 -87.52560 423 ft 10 kts 127°
2026-05-08 21:54 38.04516 -87.52479 423 ft 10 kts 69°
2026-05-08 21:54 38.04567 -87.52397 423 ft 12 kts 49°
2026-05-08 21:55 38.04628 -87.52299 423 ft 15 kts 51°
2026-05-08 21:55 38.04699 -87.52188 423 ft 17 kts 52°
2026-05-08 21:55 38.04784 -87.52068 423 ft 19 kts 40°
2026-05-08 21:56 38.05020 -87.51832 423 ft 23 kts 38°
2026-05-08 21:56 38.05154 -87.51700 423 ft 23 kts 39°
2026-05-08 21:56 38.05286 -87.51569 423 ft 23 kts 38°
2026-05-08 21:56 38.05374 -87.51463 423 ft 14 kts 85°
2026-05-08 21:57 38.05320 -87.51368 423 ft 9 kts 174°
2026-05-08 21:57 38.05291 -87.51389 423 ft 0 kts 218°
2026-05-08 21:57 38.05175 -87.51505 423 ft 57 kts 218°
2026-05-08 21:57 38.04671 -87.52003 423 ft 122 kts 218°
2026-05-08 21:58 38.03921 -87.52746 768 ft 142 kts 219°
2026-05-08 21:58 38.03104 -87.53540 1360 ft 153 kts 218°
2026-05-08 21:58 38.02267 -87.54355 1999 ft 160 kts 218°
2026-05-08 21:58 38.01308 -87.55286 2382 ft 182 kts 218°
2026-05-08 21:59 38.00218 -87.56403 2457 ft 221 kts 219°
2026-05-08 21:59 37.98854 -87.57453 2868 ft 239 kts 197°
2026-05-08 21:59 37.97188 -87.57366 3608 ft 248 kts 163°
2026-05-08 21:59 37.95784 -87.56080 4275 ft 261 kts 131°
2026-05-08 22:00 37.95095 -87.53936 4942 ft 273 kts 98°
2026-05-08 22:00 37.95066 -87.51528 5584 ft 278 kts 97°
2026-05-08 22:00 37.94492 -87.49206 6257 ft 278 kts 118°
2026-05-08 22:00 37.93612 -87.46995 6849 ft 285 kts 120°
2026-05-08 22:01 37.92667 -87.44767 7511 ft 288 kts 121°
2026-05-08 22:01 37.91705 -87.42535 8171 ft 292 kts 121°
2026-05-08 22:01 37.90719 -87.40256 8747 ft 298 kts 121°
2026-05-08 22:01 37.89725 -87.37960 9365 ft 302 kts 121°
2026-05-08 22:02 37.88701 -87.35598 9994 ft 306 kts 121°
2026-05-08 22:02 37.87667 -87.33213 10550 ft 313 kts 121°
2026-05-08 22:02 37.86617 -87.30796 10996 ft 323 kts 121°
2026-05-08 22:02 37.85513 -87.28255 11417 ft 333 kts 121°
2026-05-08 22:03 37.84363 -87.25610 11809 ft 345 kts 121°
2026-05-08 22:03 37.83209 -87.22958 12239 ft 353 kts 121°
2026-05-08 22:03 37.82014 -87.20213 12748 ft 358 kts 121°
2026-05-08 22:03 37.80807 -87.17442 13316 ft 360 kts 121°
2026-05-08 22:04 37.79593 -87.14660 13857 ft 363 kts 121°
2026-05-08 22:04 37.78376 -87.11874 14361 ft 366 kts 121°
2026-05-08 22:04 37.77130 -87.09023 14883 ft 370 kts 121°
2026-05-08 22:04 37.75885 -87.06176 15363 ft 373 kts 121°
2026-05-08 22:05 37.74624 -87.03297 15850 ft 376 kts 121°
2026-05-08 22:05 37.73354 -87.00401 16364 ft 379 kts 121°
2026-05-08 22:05 37.72087 -86.97514 16849 ft 383 kts 121°
2026-05-08 22:05 37.70787 -86.94554 17263 ft 388 kts 121°
2026-05-08 22:06 37.69477 -86.91571 17756 ft 389 kts 121°
2026-05-08 22:06 37.68167 -86.88593 18301 ft 389 kts 121°
2026-05-08 22:06 37.66853 -86.85606 18842 ft 389 kts 121°
2026-05-08 22:06 37.65540 -86.82626 19392 ft 389 kts 122°
2026-05-08 22:07 37.64232 -86.79660 19956 ft 387 kts 122°
2026-05-08 22:07 37.62926 -86.76703 20507 ft 387 kts 122°
2026-05-08 22:07 37.61615 -86.73736 21007 ft 388 kts 122°
2026-05-08 22:07 37.60310 -86.70784 21476 ft 389 kts 122°
2026-05-08 22:08 37.58990 -86.67802 21977 ft 389 kts 122°
2026-05-08 22:08 37.57669 -86.64820 22492 ft 389 kts 122°
2026-05-08 22:08 37.56353 -86.61852 22995 ft 389 kts 122°
2026-05-08 22:08 37.55036 -86.58887 23450 ft 390 kts 123°
2026-05-08 22:09 37.53714 -86.55911 23906 ft 391 kts 123°
2026-05-08 22:09 37.52388 -86.52928 24356 ft 392 kts 123°
2026-05-08 22:09 37.51058 -86.49938 24817 ft 393 kts 124°
2026-05-08 22:09 37.49720 -86.46935 25265 ft 393 kts 124°
2026-05-08 22:10 37.48401 -86.43977 25736 ft 393 kts 125°
2026-05-08 22:10 37.47061 -86.40975 26164 ft 394 kts 124°
2026-05-08 22:10 37.45721 -86.37977 26567 ft 395 kts 125°
2026-05-08 22:10 37.44378 -86.34972 26951 ft 397 kts 126°
2026-05-08 22:11 37.43025 -86.31950 27386 ft 397 kts 127°
2026-05-08 22:11 37.41675 -86.28934 27795 ft 397 kts 127°
2026-05-08 22:11 37.40315 -86.25902 28188 ft 397 kts 127°
2026-05-08 22:11 37.38954 -86.22870 28529 ft 399 kts 127°
2026-05-08 22:12 37.37598 -86.19853 28867 ft 401 kts 127°
2026-05-08 22:12 37.36234 -86.16818 29222 ft 402 kts 128°
2026-05-08 22:12 37.34857 -86.13758 29593 ft 402 kts 129°
2026-05-08 22:12 37.33476 -86.10695 29960 ft 403 kts 129°
2026-05-08 22:13 37.32093 -86.07626 30262 ft 404 kts 129°
2026-05-08 22:13 37.30719 -86.04584 30566 ft 406 kts 129°
2026-05-08 22:13 37.29331 -86.01507 30948 ft 404 kts 130°
2026-05-08 22:13 37.27945 -85.98444 31268 ft 405 kts 130°
2026-05-08 22:14 37.26556 -85.95376 31585 ft 405 kts 131°
2026-05-08 22:14 37.25166 -85.92306 31936 ft 404 kts 131°
2026-05-08 22:14 37.23793 -85.89278 32275 ft 404 kts 132°
2026-05-08 22:14 37.22399 -85.86210 32550 ft 405 kts 132°
2026-05-08 22:15 37.21025 -85.83182 32904 ft 403 kts 132°
2026-05-08 22:15 37.19627 -85.80111 33192 ft 404 kts 133°
2026-05-08 22:15 37.18232 -85.77045 33470 ft 405 kts 133°
2026-05-08 22:15 37.16833 -85.73971 33813 ft 403 kts 133°
2026-05-08 22:16 37.15445 -85.70932 34057 ft 406 kts 133°
2026-05-08 22:16 37.14053 -85.67880 34384 ft 405 kts 134°
2026-05-08 22:16 37.12642 -85.64792 34724 ft 404 kts 134°
2026-05-08 22:16 37.11264 -85.61777 35060 ft 403 kts 134°
2026-05-08 22:17 37.09847 -85.58688 35102 ft 408 kts 133°
2026-05-08 22:17 37.06985 -85.52445 35111 ft 418 kts 133°
2026-05-08 22:18 37.04035 -85.46021 35130 ft 428 kts 133°
2026-05-08 22:18 37.01008 -85.39441 35047 ft 440 kts 132°
2026-05-08 22:19 36.97926 -85.32757 35016 ft 449 kts 133°
2026-05-08 22:19 36.94754 -85.25893 35012 ft 456 kts 132°
2026-05-08 22:20 36.91538 -85.18943 35020 ft 462 kts 132°
2026-05-08 22:20 36.88303 -85.11971 35031 ft 468 kts 132°
2026-05-08 22:21 36.85033 -85.04939 35039 ft 473 kts 133°
2026-05-08 22:21 36.81682 -84.97753 35041 ft 479 kts 133°
2026-05-08 22:22 36.78337 -84.90588 35058 ft 484 kts 133°
2026-05-08 22:22 36.74915 -84.83274 35061 ft 489 kts 133°
2026-05-08 22:23 36.71456 -84.75898 35052 ft 494 kts 132°
2026-05-08 22:23 36.67981 -84.68504 35047 ft 498 kts 132°
2026-05-08 22:24 36.64454 -84.61017 35066 ft 502 kts 132°
2026-05-08 22:24 36.60903 -84.53496 35069 ft 506 kts 132°
2026-05-08 22:25 36.57338 -84.45963 35074 ft 510 kts 132°
2026-05-08 22:25 36.55520 -84.42127 34921 ft 515 kts 132°
2026-05-08 22:25 36.53710 -84.38319 34974 ft 514 kts 133°
2026-05-08 22:25 36.51699 -84.34721 34973 ft 500 kts 142°
2026-05-08 22:26 36.49425 -84.31486 34946 ft 495 kts 146°
2026-05-08 22:26 36.44873 -84.25037 34530 ft 500 kts 145°
2026-05-08 22:26 36.42617 -84.21826 34264 ft 495 kts 146°
2026-05-08 22:27 36.40357 -84.18617 33976 ft 491 kts 146°
2026-05-08 22:27 36.38134 -84.15463 33692 ft 485 kts 146°
2026-05-08 22:27 36.35915 -84.12316 33406 ft 479 kts 146°
2026-05-08 22:27 36.33758 -84.09247 33144 ft 474 kts 146°
2026-05-08 22:28 36.31609 -84.06192 32882 ft 470 kts 146°
2026-05-08 22:28 36.29452 -84.03130 32649 ft 466 kts 147°
2026-05-08 22:28 36.27342 -84.00138 32441 ft 464 kts 146°
2026-05-08 22:28 36.25241 -83.97161 32240 ft 462 kts 146°
2026-05-08 22:29 36.23112 -83.94147 32034 ft 462 kts 146°
2026-05-08 22:29 36.21006 -83.91168 31776 ft 466 kts 146°
2026-05-08 22:29 36.18834 -83.88102 31531 ft 476 kts 146°
2026-05-08 22:29 36.16656 -83.85023 31302 ft 483 kts 145°
2026-05-08 22:30 36.14395 -83.81835 31052 ft 491 kts 145°
2026-05-08 22:30 36.12138 -83.78651 30792 ft 498 kts 145°
2026-05-08 22:30 36.09854 -83.75434 30538 ft 505 kts 144°
2026-05-08 22:30 36.07501 -83.72123 30282 ft 511 kts 144°
2026-05-08 22:31 36.05138 -83.68800 30050 ft 514 kts 144°
2026-05-08 22:31 36.02801 -83.65515 29800 ft 514 kts 144°
2026-05-08 22:31 36.00441 -83.62202 29540 ft 511 kts 144°
2026-05-08 22:31 35.98106 -83.58930 29296 ft 508 kts 144°
2026-05-08 22:32 35.95766 -83.55654 29081 ft 505 kts 144°
2026-05-08 22:32 35.93467 -83.52438 28897 ft 504 kts 143°
2026-05-08 22:32 35.91242 -83.49043 28724 ft 514 kts 136°
2026-05-08 22:32 35.89351 -83.45232 28550 ft 525 kts 127°
2026-05-08 22:33 35.87822 -83.41097 28380 ft 534 kts 118°
2026-05-08 22:33 35.86742 -83.36752 28212 ft 541 kts 108°
2026-05-08 22:33 35.86008 -83.32155 28024 ft 541 kts 107°
2026-05-08 22:33 35.85120 -83.27731 27825 ft 538 kts 110°
2026-05-08 22:34 35.84144 -83.23255 27627 ft 536 kts 110°
2026-05-08 22:34 35.83165 -83.18860 27425 ft 535 kts 110°
2026-05-08 22:34 35.82179 -83.14448 27228 ft 534 kts 110°
2026-05-08 22:34 35.81205 -83.10040 27033 ft 532 kts 110°
2026-05-08 22:35 35.80241 -83.05695 26840 ft 529 kts 110°
2026-05-08 22:35 35.79269 -83.01330 26642 ft 526 kts 109°
2026-05-08 22:35 35.78315 -82.97049 26457 ft 522 kts 109°
2026-05-08 22:35 35.77353 -82.92744 26263 ft 519 kts 109°
2026-05-08 22:36 35.76396 -82.88461 26076 ft 515 kts 109°
2026-05-08 22:36 35.75453 -82.84257 25890 ft 512 kts 109°
2026-05-08 22:36 35.74504 -82.80026 25702 ft 509 kts 108°
2026-05-08 22:36 35.73562 -82.75838 25515 ft 506 kts 108°
2026-05-08 22:37 35.72630 -82.71705 25334 ft 504 kts 108°
2026-05-08 22:37 35.71690 -82.67551 25150 ft 501 kts 109°
2026-05-08 22:37 35.70747 -82.63397 24968 ft 499 kts 108°
2026-05-08 22:37 35.69854 -82.59300 24784 ft 495 kts 110°
2026-05-08 22:38 35.68899 -82.55239 24606 ft 493 kts 108°
2026-05-08 22:38 35.67976 -82.51193 24426 ft 491 kts 108°
2026-05-08 22:38 35.67047 -82.47147 24247 ft 489 kts 108°
2026-05-08 22:38 35.66124 -82.43137 24128 ft 485 kts 108°
2026-05-08 22:39 35.65222 -82.39226 24121 ft 478 kts 108°
2026-05-08 22:39 35.64317 -82.35307 24019 ft 476 kts 108°
2026-05-08 22:39 35.63403 -82.31359 23820 ft 475 kts 109°
2026-05-08 22:39 35.62505 -82.27480 23622 ft 474 kts 109°
2026-05-08 22:40 35.61594 -82.23548 23420 ft 472 kts 109°
2026-05-08 22:40 35.60697 -82.19678 23178 ft 470 kts 108°
2026-05-08 22:40 35.59797 -82.15806 22923 ft 468 kts 108°
2026-05-08 22:40 35.58915 -82.12015 22562 ft 466 kts 108°
2026-05-08 22:41 35.58022 -82.08182 22180 ft 464 kts 108°
2026-05-08 22:41 35.57197 -82.04358 21795 ft 463 kts 104°
2026-05-08 22:41 35.56518 -82.00494 21416 ft 461 kts 104°
2026-05-08 22:41 35.55834 -81.96709 20992 ft 459 kts 104°
2026-05-08 22:42 35.55143 -81.92903 20493 ft 455 kts 104°
2026-05-08 22:42 35.54455 -81.89121 20003 ft 452 kts 104°
2026-05-08 22:42 35.53769 -81.85369 19511 ft 448 kts 104°
2026-05-08 22:42 35.53096 -81.81692 19026 ft 445 kts 103°
2026-05-08 22:43 35.52418 -81.77989 18537 ft 442 kts 103°
2026-05-08 22:43 35.51748 -81.74335 18050 ft 434 kts 104°
2026-05-08 22:43 35.51100 -81.70773 17555 ft 422 kts 103°
2026-05-08 22:43 35.50465 -81.67287 17067 ft 410 kts 103°
2026-05-08 22:44 35.49919 -81.63909 16579 ft 401 kts 96°
2026-05-08 22:44 35.49647 -81.60531 16100 ft 392 kts 95°
2026-05-08 22:44 35.49394 -81.57246 15613 ft 385 kts 95°
2026-05-08 22:44 35.49148 -81.54010 15127 ft 378 kts 95°
2026-05-08 22:45 35.48909 -81.50850 14639 ft 371 kts 94°
2026-05-08 22:45 35.48671 -81.47706 14156 ft 368 kts 94°
2026-05-08 22:45 35.48438 -81.44625 13682 ft 365 kts 95°
2026-05-08 22:45 35.48204 -81.41560 13164 ft 358 kts 94°
2026-05-08 22:46 35.47974 -81.38544 12620 ft 354 kts 95°
2026-05-08 22:46 35.47744 -81.35535 12015 ft 351 kts 94°
2026-05-08 22:46 35.47514 -81.32557 11290 ft 352 kts 95°
2026-05-08 22:46 35.47284 -81.29569 10531 ft 350 kts 95°
2026-05-08 22:47 35.47063 -81.26709 9787 ft 331 kts 95°
2026-05-08 22:47 35.46851 -81.23982 9165 ft 313 kts 95°
2026-05-08 22:47 35.46648 -81.21371 8597 ft 305 kts 96°
2026-05-08 22:47 35.46449 -81.18806 8115 ft 304 kts 96°
2026-05-08 22:48 35.46251 -81.16287 7570 ft 293 kts 96°
2026-05-08 22:48 35.46063 -81.13881 7076 ft 277 kts 96°
2026-05-08 22:48 35.45881 -81.11573 6749 ft 268 kts 96°
2026-05-08 22:48 35.45704 -81.09323 6446 ft 262 kts 97°
2026-05-08 22:49 35.45532 -81.07144 6080 ft 258 kts 97°
2026-05-08 22:49 35.45190 -81.02837 5342 ft 250 kts 97°
2026-05-08 22:49 35.45022 -81.00713 4973 ft 247 kts 97°
2026-05-08 22:50 35.44860 -80.98652 4609 ft 244 kts 97°
2026-05-08 22:50 35.44559 -80.96616 4220 ft 239 kts 116°
2026-05-08 22:50 35.43524 -80.95178 4074 ft 219 kts 152°
2026-05-08 22:50 35.42119 -80.94857 4062 ft 197 kts 192°
2026-05-08 22:51 35.40998 -80.95610 4076 ft 180 kts 221°
2026-05-08 22:51 35.39976 -80.96377 3963 ft 169 kts 192°
2026-05-08 22:51 35.38839 -80.96500 3801 ft 164 kts 184°
2026-05-08 22:51 35.37662 -80.96512 3615 ft 173 kts 180°
2026-05-08 22:52 35.36418 -80.96458 3393 ft 181 kts 178°
2026-05-08 22:52 35.35170 -80.96372 3155 ft 180 kts 177°
2026-05-08 22:52 35.33924 -80.96273 2918 ft 172 kts 176°
2026-05-08 22:52 35.32808 -80.96179 2700 ft 149 kts 177°
2026-05-08 22:53 35.31838 -80.96096 2495 ft 135 kts 177°
2026-05-08 22:53 35.30906 -80.96017 2323 ft 131 kts 177°
2026-05-08 22:53 35.30001 -80.95939 2154 ft 132 kts 177°
2026-05-08 22:53 35.29065 -80.95859 1984 ft 137 kts 178°
2026-05-08 22:54 35.28102 -80.95776 1799 ft 136 kts 178°
2026-05-08 22:54 35.27187 -80.95695 1618 ft 130 kts 178°
2026-05-08 22:54 35.26276 -80.95608 1449 ft 132 kts 176°
2026-05-08 22:54 35.25369 -80.95519 1285 ft 130 kts 178°
2026-05-08 22:55 35.24460 -80.95452 1112 ft 131 kts 177°
2026-05-08 22:55 35.23546 -80.95380 938 ft 131 kts 176°
2026-05-08 22:55 35.22638 -80.95300 769 ft 129 kts 177°
2026-05-08 22:55 35.21828 -80.95237 722 ft 91 kts 176°
2026-05-08 22:56 35.21392 -80.95189 713 ft 38 kts 163°
2026-05-08 22:56 35.21218 -80.95093 708 ft 16 kts 147°
2026-05-08 22:56 35.21208 -80.95085 707 ft 0 kts 146°
2026-05-08 22:57 35.21196 -80.95075 707 ft 4 kts 142°
2026-05-08 22:57 35.21168 -80.95024 705 ft 10 kts 107°
2026-05-08 22:57 35.21184 -80.94921 704 ft 15 kts 54°
2026-05-08 22:57 35.21260 -80.94817 703 ft 17 kts 50°
2026-05-08 22:58 35.21315 -80.94678 704 ft 18 kts 72°
2026-05-08 22:58 35.21379 -80.94533 707 ft 19 kts 49°
2026-05-08 22:58 35.21468 -80.94411 712 ft 18 kts 49°
2026-05-08 22:58 35.21553 -80.94292 716 ft 18 kts 49°
2026-05-08 22:59 35.21635 -80.94176 720 ft 17 kts 49°
2026-05-08 22:59 35.21717 -80.94062 724 ft 17 kts 48°
2026-05-08 22:59 35.21801 -80.93952 728 ft 17 kts 47°
2026-05-08 22:59 35.21884 -80.93838 730 ft 18 kts 49°
2026-05-08 23:00 35.21967 -80.93726 733 ft 15 kts 44°
2026-05-08 23:00 35.22068 -80.93716 734 ft 15 kts 355°
2026-05-08 23:00 35.22179 -80.93726 736 ft 16 kts 357°
2026-05-08 23:00 35.22302 -80.93735 736 ft 19 kts 356°
2026-05-08 23:01 35.22390 -80.93749 735 ft 8 kts 320°
2026-05-08 23:01 35.22420 -80.93819 734 ft 11 kts 344°
2026-05-08 23:01 35.22491 -80.93870 733 ft 12 kts 287°
2026-05-08 23:01 35.22451 -80.93954 731 ft 11 kts 192°
2026-05-08 23:02 35.22411 -80.93961 731 ft 3 kts 216°
2026-05-08 23:02 35.22401 -80.93993 731 ft 4 kts 257°
2026-05-08 23:02 35.22400 -80.94003 730 ft 0 kts 259°